This is the latest recevied weather packets stored in our database for station/object VY2CRA-4. If no packets are shown the sender has not sent any weather packets the latest 10 day(s).
| Time | Temp. | Humidity | Pressure | Rain* | Wind** | Luminosity | Snow |
|---|---|---|---|---|---|---|---|
| 1777542080 | 7.78° C | 54% | 1014.1 hPa | 0 mm | - | - | - |
| 1777540877 | 7.78° C | 54% | 1014.2 hPa | 0 mm | - | - | - |
| 1777539677 | 8.33° C | 53% | 1014.1 hPa | 0 mm | - | - | - |
| 1777538475 | 8.33° C | 53% | 1014.1 hPa | 0 mm | - | - | - |
| 1777536074 | 8.33° C | 52% | 1014.1 hPa | 0 mm | - | - | - |
| 1777534874 | 8.33° C | 51% | 1014.3 hPa | 0 mm | - | - | - |
| 1777533673 | 8.89° C | 51% | 1014.7 hPa | 0 mm | - | - | - |
| 1777532471 | 8.33° C | 51% | 1014.9 hPa | 0 mm | - | - | - |
| 1777531270 | 8.33° C | 50% | 1015 hPa | 0 mm | - | - | - |
| 1777530069 | 8.33° C | 50% | 1015 hPa | 0 mm | - | - | - |
| 1777528868 | 8.33° C | 50% | 1014.9 hPa | 0 mm | - | - | - |
| 1777526466 | 8.89° C | 49% | 1015.2 hPa | 0 mm | - | - | - |
| 1777525265 | 8.89° C | 48% | 1015.4 hPa | 0 mm | - | - | - |
| 1777524066 | 9.44° C | 48% | 1015.6 hPa | 0 mm | - | - | - |
| 1777522863 | 9.44° C | 47% | 1015.9 hPa | 0 mm | - | - | - |
| 1777521663 | 10° C | 46% | 1015.9 hPa | 0 mm | - | - | - |
| 1777520461 | 10° C | 45% | 1016.2 hPa | 0 mm | - | - | - |
| 1777519261 | 10.56° C | 44% | 1016 hPa | 0 mm | - | - | - |
| 1777518060 | 10.56° C | 43% | 1015.9 hPa | 0 mm | - | - | - |
| 1777515658 | 11.67° C | 39% | 1015.9 hPa | 0 mm | - | - | - |
| 1777514457 | 12.78° C | 37% | 1016.2 hPa | 0 mm | - | - | - |
| 1777512057 | 14.44° C | 31% | 1016.3 hPa | 0 mm | - | - | - |
| 1777506050 | 16.67° C | 28% | 1015.8 hPa | 0 mm | - | - | - |
| 1777504849 | 15° C | 31% | 1015.6 hPa | 0 mm | - | - | - |
| 1777503649 | 15.56° C | 30% | 1015.4 hPa | 0 mm | - | - | - |
* Rain since midnight (hover to see other rain measurements)
** Current wind speed in m/s (hover to see current wind gust speed)